Regional Weather Roundup
Issued by NWS

Home | Current Version | Previous Version | Graphics & Text | Print | Product List | Glossary Off
Versions: 1 2 3 4 5 6 7 8 9 10 11 12 13 14 15 16 17 18 19 20 21 22 23 24 25 26 27 28 29 30 31 32 33 34 35 36 37 38 39 40 41 42 43 44 45 46 47 48 49 50

000
ASUS43 KLMK 172102
RWRKY
KENTUCKY REGIONAL WEATHER ROUNDUP
NATIONAL WEATHER SERVICE LOUISVILLE KY
400 PM EST TUE JAN 17 2017

NOTE "FAIR" INDICATES FEW OR NO CLOUDS BELOW 12,000 FEET
WITH NO SIGNIFICANT WEATHER AND/OR OBSTRUCTIONS TO VISIBILITY.

KYZ001>023-026-027-061>063-070>075-172200-
WESTERN AND SOUTH CENTRAL KENTUCKY

CITY           SKY/WX    TMP DP  RH WIND       PRES   REMARKS
PADUCAH        CLOUDY    47  39  74 W13       30.07R
HENDERSON      CLOUDY    46  39  76 W10       30.04R
OWENSBORO      PTSUNNY   51  44  77 W12       30.02R
HOPKINSVILLE   MOSUNNY   57  47  69 SW14      30.02R
BOWLING GREEN  CLOUDY    61  48  62 SW16G23   30.01R
GLASGOW        NOT AVBL
$$

KYZ024-025-028>034-038-045-046-053-172200-
NORTH CENTRAL KENTUCKY

CITY           SKY/WX    TMP DP  RH WIND       PRES   REMARKS
LOUISVILLE/SDF CLOUDY    55  45  68 W21       29.97R
LOUISVILLE/LOU CLOUDY    55  45  68 W15       29.97R
FORT KNOX      MOSUNNY   54  47  77 W12       29.97R
$$

KYZ035>037-039>044-047>052-055>060-089>105-172200-
NORTHEAST KENTUCKY

CITY           SKY/WX    TMP DP  RH WIND       PRES   REMARKS
LEXINGTON      CLOUDY    62  50  64 SW15G23   29.93R
COVINGTON      PTSUNNY   54  47  77 W14       29.92R
FRANKFORT      CLOUDY    61  49  64 W9        29.93R
$$

KYZ054-064>069-076>088-106>120-172200-
SOUTHEAST KENTUCKY

CITY           SKY/WX    TMP DP  RH WIND       PRES   REMARKS
JACKSON        CLOUDY    61  56  83 SW5       29.96S
LONDON         CLOUDY    60  57  89 S9        29.98R
SOMERSET       RAIN      59  59 100 W10G20    30.00S
MIDDLESBORO    CLOUDY    62  58  87 SW6       30.02S
MONTICELLO     CLOUDY    62  59  90 W22G28    30.01R
$$




USA.gov is the U.S. government's official web portal to all federal, state and local government web resources and services.